Topeka, KS

1:59 AM CDT on June 28, 2017 (GMT -0500)
Billard Municipal

Weather History for KTOP - March, 2014

Change the Weather History Date:

Tuesday, March 18, 2014

  Actual Average Record
Temperature  
Mean Temperature 53 °F 46 °F  
Max Temperature 65 °F 57 °F 86 °F (1921)
Min Temperature 40 °F 34 °F -2 °F (1923)
Degree Days  
Heating Degree Days 12 19  
Month to date heating degree days 457 404  
Since 1 July heating degree days 4779 4371  
Cooling Degree Days 0 0  
Month to date cooling degree days 0 0  
Year to date cooling degree days 0 0  
Growing Degree Days 4 (Base 50)    
Moisture  
Dew Point 31 °F    
Average Humidity 46    
Maximum Humidity 62    
Minimum Humidity 30    
Precipitation  
Precipitation 0.00 in 0.09 in 2.47 in (1992)
Month to date precipitation 0.45 1.28  
Year to date precipitation 2.11 3.46  
Snow  
Snow 0.00 in 0.00 in 4.50 in (1906)
Month to date snowfall 2.4 1.1  
Year to date snowfall 21.3 10.5  
Since 1 July snowfall 25.6 17.0  
Snow Depth 0.00 in    
Sea Level Pressure  
Sea Level Pressure 29.50 in    
Wind  
Wind Speed 14 mph (SSW)    
Max Wind Speed 24 mph    
Max Gust Speed 33 mph    
Visibility 10 miles    
Events      
T = Trace of Precipitation, MM = Missing Value Source: NWS Daily Summary

Daily Weather History Graph

Daily Weather History Graph

Search for Another Location

Airport or City:

Trip Planner

Search our weather history database for the weather conditions in past years. The results will help you decide how hot, cold, wet, or windy it might be!

Date:

Astronomy

Mar. 18, 2014 Rise Set
Actual Time 7:29 AM CDT 7:32 PM CDT
Civil Twilight 7:02 AM CDT 7:59 PM CDT
Nautical Twilight 6:31 AM CDT 8:30 PM CDT
Astronomical Twilight 5:59 AM CDT 9:01 PM CDT
Moon 9:49 PM CDT (3/18) 8:20 AM CDT (3/18)
Length of Visible Light 12h 56m
Length of Day
12h 03m
Waning Gibbous, 96% of the Moon is Illuminated
Mar 18
Waning Gibbous
Mar 23
Last Quarter
Mar 30
New
Apr 7
First Quarter
Apr 15
Full

Hourly Weather History & Observations

Time (CDT) Temp. Windchill Dew Point Humidity Pressure Visibility Wind Dir Wind Speed Gust Speed Precip Events Conditions
12:53 AM 46.0 °F 40.6 °F 24.1 °F 42% 29.55 in 10.0 mi SSE 11.5 mph - N/A   Clear
1:53 AM 46.0 °F 40.6 °F 24.1 °F 42% 29.53 in 10.0 mi SSE 11.5 mph 24.2 mph N/A   Clear
2:53 AM 46.0 °F 40.2 °F 24.1 °F 42% 29.51 in 10.0 mi SSE 12.7 mph - N/A   Clear
3:53 AM 46.0 °F 39.6 °F 24.1 °F 42% 29.48 in 10.0 mi SSE 15.0 mph 24.2 mph N/A   Clear
4:53 AM 46.9 °F - 25.0 °F 42% 29.47 in 10.0 mi SE 13.8 mph - N/A   Clear
5:53 AM 46.9 °F - 27.0 °F 46% 29.44 in 10.0 mi SSE 15.0 mph 25.3 mph N/A   Clear
6:53 AM 48.9 °F - 30.0 °F 48% 29.44 in 10.0 mi SSE 16.1 mph 27.6 mph N/A   Clear
7:53 AM 48.0 °F - 32.0 °F 54% 29.44 in 10.0 mi SSE 20.7 mph 27.6 mph N/A   Clear
8:53 AM 48.9 °F - 33.1 °F 54% 29.44 in 10.0 mi SSE 18.4 mph 27.6 mph N/A   Clear
9:53 AM 50.0 °F - 34.0 °F 54% 29.45 in 10.0 mi SSE 17.3 mph 26.5 mph N/A   Clear
10:53 AM 52.0 °F - 35.1 °F 53% 29.43 in 10.0 mi SSE 23.0 mph 27.6 mph N/A   Clear
11:53 AM 55.0 °F - 35.1 °F 47% 29.43 in 10.0 mi South 18.4 mph 28.8 mph N/A   Clear
12:53 PM 60.1 °F - 35.1 °F 39% 29.44 in 10.0 mi South 16.1 mph 25.3 mph N/A   Partly Cloudy
1:53 PM 61.0 °F - 34.0 °F 36% 29.42 in 10.0 mi South 9.2 mph 24.2 mph N/A   Scattered Clouds
2:53 PM 61.0 °F - 34.0 °F 36% 29.42 in 10.0 mi Variable 3.5 mph - N/A   Scattered Clouds
3:53 PM 64.0 °F - 33.1 °F 31% 29.42 in 10.0 mi SW 10.4 mph - N/A   Partly Cloudy
4:53 PM 63.0 °F - 30.9 °F 30% 29.43 in 10.0 mi SW 11.5 mph 17.3 mph N/A   Clear
5:53 PM 63.0 °F - 32.0 °F 31% 29.46 in 10.0 mi SW 11.5 mph - N/A   Clear
6:53 PM 61.0 °F - 32.0 °F 34% 29.48 in 10.0 mi West 8.1 mph - N/A   Partly Cloudy
7:53 PM 59.0 °F - 33.1 °F 38% 29.53 in - West 11.5 mph - N/A   Unknown
8:53 PM 57.0 °F - 30.9 °F 37% 29.58 in 10.0 mi West 11.5 mph 20.7 mph N/A   Clear
9:53 PM 50.0 °F - 32.0 °F 50% 29.62 in 10.0 mi West 10.4 mph - N/A   Clear
10:49 PM 48.2 °F - 30.2 °F 50% 29.66 in 10.0 mi NW 13.8 mph - N/A   Scattered Clouds
10:53 PM 46.9 °F - 30.9 °F 54% 29.66 in 10.0 mi NNW 16.1 mph - N/A   Mostly Cloudy
11:53 PM 42.1 °F 34.5 °F 30.9 °F 65% 29.73 in 9.0 mi NW 15.0 mph 28.8 mph N/A   Clear